Weather History for KMHS - December, 2013

Change the Weather History Date:

Sunday, December 29, 2013

  Actual Average Record
Temperature  
Mean Temperature 37 °F 35 °F  
Max Temperature 52 °F 44 °F 65 °F (1956)
Min Temperature 22 °F 26 °F 2 °F (1911)
Degree Days  
Heating Degree Days 28 30  
Month to date heating degree days 894 862  
Since 1 July heating degree days 2131 2259  
Cooling Degree Days 0 0  
Month to date cooling degree days 0 0  
Year to date cooling degree days 474 288  
Moisture  
Dew Point 13 °F    
Average Humidity 43    
Maximum Humidity 57    
Minimum Humidity 23    
Precipitation  
Precipitation 0.00 in 0.25 in 2.37 in (1996)
Month to date precipitation 0.24 7.34  
Year to date precipitation 10.00 42.70  
Sea Level Pressure  
Sea Level Pressure 30.40 in    
Wind  
Wind Speed 4 mph (NNE)    
Max Wind Speed 9 mph    
Max Gust Speed 17 mph    
Visibility 9 miles    
Events      
T = Trace of Precipitation, MM = Missing Value Source: NWS Daily Summary

Daily Weather History Graph

Daily Weather History Graph

Search for Another Location

Airport or City:

Trip Planner

Search our weather history database for the weather conditions in past years. The results will help you decide how hot, cold, wet, or windy it might be!

Date:

Astronomy

Dec. 29, 2013 Rise Set
Actual Time 7:34 AM PST 4:48 PM PST
Civil Twilight 7:03 AM PST 5:19 PM PST
Nautical Twilight 6:28 AM PST 5:54 PM PST
Astronomical Twilight 5:55 AM PST 6:28 PM PST
Moon 4:23 AM PST (12/29) 2:31 PM PST (12/29)
Length of Visible Light 10h 16m
Length of Day
9h 13m
Waning Crescent, 10% of the Moon is Illuminated
Dec 29
Waning Crescent
Jan 1
New
Jan 7
First Quarter
Jan 15
Full
Jan 23
Last Quarter

Hourly Weather History & Observations

Time (PST) Temp. Windchill Dew Point Humidity Pressure Visibility Wind Dir Wind Speed Gust Speed Precip Events Conditions
12:56 AM 27.0 °F 23.0 °F 12.0 °F 53% 30.41 in 7.0 mi NE 3.5 mph - N/A   Clear
1:56 AM 27.0 °F - 10.9 °F 51% 30.42 in 10.0 mi Calm Calm - N/A   Clear
2:56 AM 25.0 °F 20.7 °F 10.9 °F 55% 30.43 in 6.0 mi NE 3.5 mph - N/A   Haze
3:56 AM 25.0 °F - 10.9 °F 55% 30.42 in 10.0 mi Calm Calm - N/A   Clear
4:56 AM 24.1 °F 19.7 °F 10.0 °F 55% 30.42 in 8.0 mi Variable 3.5 mph - N/A   Clear
5:56 AM 24.1 °F - 10.9 °F 57% 30.44 in 10.0 mi Calm Calm - N/A   Clear
6:56 AM 24.1 °F 19.7 °F 10.0 °F 55% 30.43 in 10.0 mi NE 3.5 mph - N/A   Clear
7:56 AM 25.0 °F - 10.0 °F 53% 30.45 in 10.0 mi Calm Calm - N/A   Clear
8:56 AM 36.0 °F 32.1 °F 12.9 °F 39% 30.44 in 10.0 mi Variable 4.6 mph - N/A   Clear
9:56 AM 42.1 °F 38.4 °F 14.0 °F 32% 30.44 in 10.0 mi Variable 5.8 mph - N/A   Clear
10:56 AM 44.1 °F 40.8 °F 14.0 °F 30% 30.44 in 10.0 mi NW 5.8 mph - N/A   Clear
11:56 AM 46.9 °F - 12.9 °F 25% 30.40 in 10.0 mi Variable 3.5 mph - N/A   Clear
12:56 PM 48.9 °F - 12.0 °F 23% 30.37 in 10.0 mi Variable 6.9 mph - N/A   Clear
1:56 PM 50.0 °F - 15.1 °F 25% 30.35 in 10.0 mi NW 8.1 mph - N/A   Clear
2:56 PM 48.9 °F - 12.9 °F 24% 30.35 in 10.0 mi NW 5.8 mph - N/A   Clear
3:56 PM 46.9 °F - 12.9 °F 25% 30.35 in 10.0 mi Variable 4.6 mph - N/A   Clear
4:56 PM 43.0 °F - 12.9 °F 30% 30.36 in 10.0 mi Calm Calm - N/A   Clear
5:56 PM 37.0 °F 34.5 °F 15.1 °F 41% 30.37 in 7.0 mi NE 3.5 mph - N/A   Clear
6:56 PM 33.1 °F 27.7 °F 16.0 °F 50% 30.39 in 10.0 mi NE 5.8 mph - N/A   Clear
7:56 PM 30.9 °F 27.5 °F 15.1 °F 52% 30.40 in 5.0 mi NE 3.5 mph - N/A   Haze
8:56 PM 30.9 °F 27.5 °F 15.1 °F 52% 30.38 in 7.0 mi Variable 3.5 mph - N/A   Clear
9:56 PM 30.0 °F 26.5 °F 15.1 °F 54% 30.37 in 10.0 mi NE 3.5 mph - N/A   Clear
10:56 PM 34.0 °F 28.8 °F 14.0 °F 44% 30.37 in 9.0 mi Variable 5.8 mph - N/A   Clear
11:56 PM 30.0 °F 26.5 °F 15.1 °F 54% 30.35 in 10.0 mi NE 3.5 mph - N/A   Clear